Theta_e
308 308 308 308 307 307 308 313 311 311 312 312 312 313 313 312 310 310 312 311 312 312 313 313 311 311 313 308 310 312 313 315 317 322 323 322 328 329 330 331 329 328 326 326 326
305 306 307 308 307 307 306 306 311 310 310 312 311 311 311 310 310 311 308 309 313 314 313 311 308 312 308 309 309 311 312 314 315 318 319 320 324 328 330 331 328 328 328 329 327
302 302 304 305 306 306 306 306 306 311 311 311 311 310 309 309 314 318 317 315 313 314 311 308 310 313 310 308 310 312 313 314 317 317 317 318 321 327 329 329 328 328 327 325 326
300 300 300 301 302 303 304 305 306 308 311 310 311 310 309 312 322 318 313 314 314 312 309 309 310 313 314 310 311 312 314 315 316 317 318 318 321 321 322 325 322 321 322 320 320
298 298 299 300 300 301 302 304 305 307 309 312 310 311 312 316 317 316 312 313 312 311 311 310 313 314 313 312 312 312 314 315 316 317 316 319 319 319 319 320 319 318 319 319 319
299 299 299 300 300 302 304 307 307 308 310 312 311 311 314 319 317 315 313 309 311 310 311 310 312 313 314 313 312 313 314 315 315 316 316 318 318 318 318 319 318 318 317 318 318
301 302 302 302 302 303 307 307 308 308 310 312 312 312 316 316 317 319 317 316 317 315 314 313 314 314 315 316 315 317 316 316 316 316 316 318 316 316 316 316 317 317 317 317 317
309 308 307 303 303 305 307 308 308 309 311 313 311 314 318 316 317 316 316 316 317 317 315 316 316 316 316 315 317 316 316 315 316 316 316 315 315 317 316 315 316 316 318 319 318
310 310 310 308 306 307 307 308 309 311 312 313 311 315 321 319 319 316 317 317 316 317 316 315 316 316 315 315 314 315 314 315 316 316 316 315 316 317 317 318 316 316 317 317 317
311 311 310 310 307 306 307 309 312 313 313 313 315 319 320 320 318 316 313 314 318 317 315 315 314 314 313 314 315 314 315 315 316 317 317 315 315 316 317 317 317 316 316 316 317
311 311 310 310 307 307 307 310 317 318 317 321 320 320 320 320 317 315 313 316 318 317 315 315 314 314 314 315 317 318 317 316 317 318 317 315 316 316 316 318 316 316 316 316 316
311 310 310 309 307 307 307 311 317 318 317 320 322 319 321 320 319 318 315 317 318 317 315 316 316 317 318 318 318 318 318 317 317 318 317 317 318 318 318 317 318 317 317 317 317
310 310 310 309 309 312 310 313 317 319 317 319 322 322 321 318 318 319 316 316 318 318 318 317 319 320 319 317 318 316 317 317 318 318 317 318 317 318 318 318 318 318 318 318 318
310 310 309 308 314 315 317 319 317 318 319 324 320 322 322 319 318 318 317 317 317 318 318 318 318 320 320 318 317 316 316 318 318 318 317 318 318 318 319 319 319 318 317 318 318
310 310 309 307 309 313 317 316 316 319 336 323 320 318 319 318 319 318 318 317 318 317 317 317 318 318 319 318 318 317 318 319 319 317 318 319 318 318 318 320 321 319 319 318 318
309 309 309 311 313 317 317 316 317 326 338 325 320 318 318 318 319 319 319 317 317 317 316 317 317 318 319 319 318 320 318 318 318 317 319 319 320 320 321 321 321 319 319 318 318
309 309 308 308 314 317 318 317 326 334 328 325 321 319 318 318 318 319 318 318 316 316 317 319 319 320 321 318 320 321 319 318 320 321 324 327 329 326 323 321 321 318 318 317 317
309 309 314 315 312 317 318 323 331 330 325 322 321 321 321 320 322 321 320 319 318 319 318 321 323 322 322 323 324 323 322 329 335 328 327 324 327 325 321 319 319 318 318 318 317
309 311 314 320 318 317 321 330 329 328 321 321 320 320 322 324 326 323 322 323 321 321 322 325 326 322 323 323 323 322 321 321 322 323 324 322 321 320 321 321 320 319 319 318 316
308 311 316 321 319 319 324 328 327 324 320 319 322 322 324 325 327 325 324 323 322 320 319 323 324 323 322 322 323 321 319 321 321 325 325 322 321 319 318 317 316 315 314 313 312
310 319 320 319 319 321 324 328 327 320 319 319 321 321 321 322 322 323 325 323 321 320 320 319 322 323 320 322 323 320 320 320 322 324 323 322 320 319 318 317 317 315 313 314 314
311 323 319 320 322 323 328 328 323 320 319 319 319 320 321 321 322 322 323 323 322 321 320 321 321 324 322 320 321 321 321 321 328 328 325 321 321 317 316 316 314 314 314 313 311
311 317 319 317 320 322 324 325 324 319 320 319 319 319 319 321 322 321 322 321 321 320 321 321 321 324 323 322 321 322 321 321 321 319 319 316 316 315 314 315 314 313 311 311 311
312 321 321 319 319 320 321 321 320 320 319 318 319 319 320 321 320 321 322 321 320 319 319 317 318 321 323 324 323 324 322 320 318 319 318 316 315 313 316 315 313 312 311 310 310
314 320 317 317 318 318 318 318 318 320 317 317 320 319 319 320 319 321 321 319 321 320 317 314 317 318 317 318 318 319 319 318 317 315 315 313 313 316 315 313 312 311 311 310 310
315 315 314 314 316 318 318 319 319 318 316 317 317 317 316 317 319 319 317 318 319 320 319 318 316 318 320 320 319 318 317 316 316 315 313 314 316 314 313 312 311 310 310 309 309
313 313 312 315 316 317 318 317 316 315 315 315 314 314 315 315 314 313 313 314 315 317 321 319 319 321 321 320 319 319 319 319 320 318 317 318 316 313 312 311 309 309 308 308 307
Wind_Speed
20 22 23 24 24 25 25 20 18 15 14 12 12 13 14 15 19 11 10 13 8 6 9 13 14 16 14 6 11 8 8 12 17 15 19 15 5 6 10 12 4 0 6 7 12
22 22 22 23 24 24 25 25 22 20 17 16 14 14 14 15 17 15 22 14 13 16 12 13 13 19 8 7 6 6 7 17 14 16 17 15 11 12 4 17 7 6 8 13 2
21 22 22 23 23 24 24 24 25 21 20 17 16 15 15 13 6 7 4 13 16 19 17 17 17 5 8 8 9 10 10 16 16 22 21 23 11 19 17 9 27 20 7 3 8
21 21 22 22 23 24 24 25 24 24 20 17 15 15 14 3 1 2 3 10 20 15 10 7 7 5 4 9 11 8 16 18 21 20 21 10 2 5 5 16 11 8 7 4 6
21 21 22 23 23 24 25 26 24 26 23 17 14 12 5 3 10 10 7 12 14 12 14 10 8 7 9 10 10 10 16 19 22 19 11 6 4 4 6 6 3 6 7 6 4
22 22 22 23 24 25 26 27 26 27 23 16 11 8 3 6 7 13 10 13 11 14 15 15 10 11 9 9 8 11 17 17 13 15 8 3 6 3 6 6 7 6 8 5 6
23 25 25 23 25 28 28 29 30 29 21 14 8 5 7 15 4 10 10 8 16 17 13 26 25 7 8 9 8 10 11 12 12 7 6 3 8 9 9 8 10 9 9 9 9
26 27 28 28 27 30 32 33 32 26 17 11 5 5 8 15 11 20 23 11 16 18 12 18 17 5 4 9 11 10 4 3 6 9 11 9 9 10 11 9 12 10 6 4 5
29 29 31 32 34 38 35 33 23 12 11 7 5 6 8 8 9 15 19 18 21 14 11 13 7 3 8 6 7 6 5 7 11 15 10 9 6 12 12 1 10 9 8 6 6
31 32 33 34 38 32 29 19 9 3 3 5 8 4 8 5 13 15 13 17 11 6 6 5 2 4 5 2 6 7 6 9 15 18 18 9 9 12 7 10 12 11 10 10 9
32 35 36 36 41 28 22 5 1 2 8 10 10 6 8 6 9 8 10 12 5 4 6 8 4 7 13 14 16 15 15 10 8 13 10 9 5 7 6 3 7 9 10 10 11
32 34 35 40 43 25 13 5 9 9 7 20 19 17 21 14 6 7 12 5 5 6 8 7 8 14 16 16 13 11 4 8 9 9 2 5 5 4 5 7 6 8 9 10 13
34 34 37 44 35 8 10 13 11 17 4 12 18 11 13 13 7 9 12 7 6 9 10 9 12 14 19 8 8 7 4 7 9 9 7 5 6 5 9 7 11 9 9 8 7
34 33 36 43 7 8 7 12 15 10 3 6 5 9 15 8 7 9 17 7 6 9 9 7 11 14 11 5 6 6 11 10 12 4 3 5 5 7 8 10 12 17 10 10 10
34 34 38 29 15 7 12 9 9 4 2 9 8 8 7 9 4 11 22 9 9 9 6 9 9 11 11 9 9 8 4 5 6 7 7 8 4 7 9 10 9 10 9 9 9
36 37 39 7 9 15 14 19 9 2 5 5 7 7 7 9 11 13 7 4 6 10 11 12 12 9 6 14 5 5 4 7 5 2 4 11 5 10 6 4 7 7 8 8 8
38 42 33 11 7 8 15 5 3 4 6 2 4 14 13 11 12 13 12 10 6 4 6 9 9 6 14 9 8 10 3 2 4 1 10 12 5 8 5 3 12 8 7 7 6
44 38 15 16 9 11 13 3 4 8 8 2 3 4 6 11 3 9 8 7 12 6 3 3 8 5 7 3 4 9 1 4 3 3 6 9 6 4 9 10 9 9 8 6 6
41 21 11 14 7 8 1 4 3 8 8 7 8 7 6 8 6 4 4 3 3 5 5 1 5 7 9 8 7 4 9 7 3 5 2 4 6 11 10 7 7 6 4 3 6
29 10 11 13 13 4 1 5 8 15 7 6 4 6 8 4 2 1 3 4 0 4 8 4 3 7 7 6 5 7 5 4 3 2 3 4 1 1 7 6 6 5 5 6 6
6 3 3 8 9 1 3 4 6 3 4 2 6 7 9 6 8 4 4 7 5 4 4 7 5 5 8 3 4 5 3 1 3 4 4 2 5 3 5 1 3 6 4 7 9
6 3 12 8 2 3 4 3 17 3 6 4 4 3 5 8 3 7 6 8 2 7 2 3 4 3 7 11 9 10 1 2 4 4 4 3 7 8 8 5 8 11 13 10 9
5 4 8 8 3 2 2 8 12 6 6 5 3 2 5 5 5 4 6 7 3 2 4 2 1 2 7 3 4 3 5 10 9 5 6 4 5 9 12 10 11 10 10 11 12
3 4 1 1 3 2 5 6 8 6 8 6 7 7 7 5 5 4 6 8 9 1 7 4 1 3 5 1 5 4 13 14 9 2 5 6 7 10 9 8 10 12 12 12 11
2 3 4 3 5 5 5 6 10 4 9 5 3 8 6 4 7 1 4 8 7 4 1 5 4 5 8 10 10 10 13 17 15 11 7 7 7 8 7 8 9 9 12 14 14
1 4 4 5 8 4 5 3 6 6 5 5 4 6 4 4 5 6 6 4 3 6 3 5 4 4 7 11 12 15 14 16 16 17 10 3 7 5 7 11 14 13 15 15 15
6 7 3 6 7 8 2 4 2 1 4 6 4 4 6 6 7 7 6 6 6 4 3 2 0 2 4 8 10 6 12 12 2 15 6 6 4 14 16 16 14 15 12 13 19
Wind_Direction
358 358 358 359 359 358 355 342 336 328 323 318 313 312 311 307 305 300 239 225 218 242 275 286 287 261 233 243 252 251 235 244 252 243 252 270 259 262 315 299 307 292 87 156 125
345 347 348 348 349 349 350 349 341 335 328 325 325 321 320 323 315 261 272 254 235 249 239 234 242 233 200 219 234 196 238 247 258 258 267 278 263 231 160 283 288 319 335 334 13
341 341 342 342 342 341 342 341 341 334 326 319 321 326 329 346 289 247 279 205 220 230 242 241 270 298 212 209 236 245 241 254 237 256 262 271 298 216 184 202 267 282 312 358 37
338 339 338 337 337 336 335 336 335 334 324 312 312 322 335 4 340 207 156 182 208 223 219 231 242 232 240 221 229 233 246 248 256 250 256 281 336 107 125 204 236 273 299 3 17
336 337 335 333 332 332 329 331 327 329 325 310 304 317 4 232 248 238 187 187 199 199 215 227 252 245 224 220 227 211 240 245 249 255 272 260 271 215 228 231 276 303 308 270 298
337 335 334 333 330 329 326 327 322 324 318 304 293 310 237 257 238 183 179 170 174 179 218 233 240 252 266 236 219 232 231 238 243 246 248 228 241 232 211 203 261 291 275 267 248
341 337 334 332 329 328 324 322 319 318 309 300 271 265 256 242 195 159 172 203 198 196 215 229 238 272 313 314 266 289 257 243 241 262 246 257 287 250 239 204 200 233 254 251 239
341 339 337 333 328 325 319 315 314 313 302 278 241 237 252 262 270 291 235 206 242 237 249 286 302 341 328 299 310 294 318 306 270 238 249 163 257 258 244 196 196 214 244 246 274
337 337 336 335 331 325 317 309 311 309 288 212 181 213 260 301 220 242 233 206 227 220 251 263 353 289 304 295 311 286 243 257 260 246 217 167 227 246 261 288 167 206 224 227 256
333 332 333 332 334 326 319 324 308 283 107 165 264 237 265 235 217 218 223 240 240 183 210 207 249 223 287 252 241 260 235 255 253 252 214 197 212 242 205 157 177 188 200 207 220
331 331 331 331 334 324 326 348 96 190 239 202 192 229 283 185 113 180 195 240 252 235 215 231 187 226 231 234 236 247 259 268 315 344 154 190 192 227 268 205 194 209 213 211 214
331 331 331 330 332 319 296 254 256 293 293 222 245 231 265 268 171 173 177 201 222 243 225 256 227 238 250 254 251 251 323 320 316 315 325 256 243 280 302 284 241 224 218 206 215
332 333 333 332 331 307 208 234 290 294 285 289 207 218 231 240 237 198 177 196 224 229 252 225 248 232 239 273 321 323 299 295 283 303 322 354 331 307 269 252 254 241 221 209 200
332 334 335 334 327 325 246 300 291 315 305 240 145 210 222 209 233 233 171 163 225 251 258 259 266 272 267 216 247 264 271 251 265 351 289 32 290 291 283 275 247 233 60 78 70
331 331 332 335 287 292 327 329 333 323 284 172 148 140 155 171 141 219 170 190 235 230 231 264 279 288 265 260 215 243 267 18 357 350 14 307 344 284 277 287 77 81 76 66 70
329 327 330 344 266 267 303 315 304 238 246 195 142 175 152 217 248 153 164 171 224 250 260 269 289 299 304 319 326 347 24 350 347 14 305 263 216 287 255 216 115 107 102 91 82
329 323 315 268 226 341 329 313 259 243 158 307 170 154 187 197 233 169 190 194 203 213 257 281 275 325 318 300 334 337 24 312 330 239 240 93 6 238 268 159 121 109 102 100 107
330 325 311 255 265 288 291 313 241 302 356 153 23 322 263 204 205 248 178 210 205 238 254 280 302 299 347 356 309 296 29 138 182 265 302 317 210 242 110 82 86 86 81 74 116
330 331 280 260 236 248 349 256 254 309 19 8 326 268 276 49 32 254 166 316 152 193 187 30 259 343 320 354 328 356 245 179 199 248 276 249 276 47 75 81 82 96 124 235 278
329 310 271 248 222 213 213 258 287 301 49 7 308 351 359 21 308 212 334 306 324 344 124 149 314 315 335 27 292 250 281 7 340 328 249 259 358 88 39 19 79 25 334 276 340
304 284 189 176 168 128 227 274 327 70 104 355 4 333 337 354 350 311 172 321 342 321 135 158 129 281 342 239 282 297 343 298 92 150 187 299 267 166 33 48 34 275 327 53 39
306 265 167 182 165 218 224 183 299 326 8 41 32 303 315 355 358 319 322 288 254 305 221 98 151 245 251 276 266 258 268 214 122 280 295 170 281 299 301 295 317 39 39 51 55
311 274 212 191 238 280 268 217 254 316 85 28 12 267 347 348 329 325 353 75 161 358 22 116 221 319 311 275 18 318 227 290 187 172 210 162 265 291 284 23 50 44 27 17 11
288 296 164 225 259 345 32 306 342 58 59 43 5 350 29 328 298 309 352 12 337 96 105 53 331 187 220 204 163 259 291 284 285 140 229 220 259 275 40 36 29 24 18 7 356
246 288 351 332 342 349 335 304 293 13 27 24 105 43 20 296 340 25 14 341 347 320 349 149 228 261 274 284 277 260 237 267 269 255 220 238 239 54 42 23 30 14 1 349 340
312 350 343 300 289 291 274 301 24 37 34 329 345 42 360 293 331 323 356 333 293 342 285 339 240 273 284 289 277 272 267 264 267 267 257 319 95 40 24 16 13 3 347 342 337
6 332 321 307 310 301 260 71 24 222 48 88 73 14 305 333 331 304 295 260 245 284 305 311 137 77 264 282 315 278 251 276 222 50 49 55 344 7 6 8 358 337 340 332 324